| time (UTC) | temp F | wind direction | speed knots | gust knots | rain 1hr in | rain 24hr in | rain mn in | humidity % | barometer mb |
| 20260508163804 | 59 | 67 | 5.2 | 10.4 | 0.00 | 0.01 | 0.00 | 51 | 1009.2 |
| 20260508162306 | 59 | 97 | 3.5 | 7.8 | 0.00 | 0.01 | 0.00 | 51 | 1009.2 |
| 20260508161804 | 59 | 86 | 4.3 | 10.4 | 0.00 | 0.01 | 0.00 | 51 | 1009.2 |
| 20260508155804 | 57 | 58 | 4.3 | 7.8 | 0.00 | 0.01 | 0.00 | 56 | 1009.2 |
| 20260508154305 | 57 | 194 | 2.6 | 6.1 | 0.00 | 0.01 | 0.00 | 55 | 1009.2 |
| 20260508153804 | 57 | 152 | 2.6 | 6.1 | 0.00 | 0.01 | 0.00 | 57 | 1009.2 |
| 20260508153304 | 56 | 173 | 0.9 | 4.3 | 0.00 | 0.01 | 0.00 | 59 | 1009.2 |
| 20260508152306 | 55 | 157 | 1.7 | 4.3 | 0.00 | 0.01 | 0.00 | 62 | 1009.2 |
| 20260508151304 | 56 | 177 | 4.3 | 6.1 | 0.00 | 0.01 | 0.00 | 63 | 1009.2 |
| 20260508144804 | 54 | 211 | 3.5 | 6.1 | 0.00 | 0.01 | 0.00 | 66 | 1009.2 |
| 20260508144304 | 53 | 195 | 3.5 | 5.2 | 0.00 | 0.01 | 0.00 | 69 | 1009.2 |
| 20260508143804 | 53 | 179 | 4.3 | 6.1 | 0.00 | 0.01 | 0.00 | 72 | 1009.2 |
| 20260508143304 | 52 | 195 | 4.3 | 5.2 | 0.00 | 0.01 | 0.00 | 72 | 1009.2 |
| 20260508142804 | 51 | 172 | 4.3 | 7.8 | 0.00 | 0.01 | 0.00 | 74 | 1009.2 |
| 20260508141804 | 51 | 191 | 4.3 | 8.7 | 0.00 | 0.01 | 0.00 | 77 | 1009.2 |
| 20260508141304 | 50 | 185 | 2.6 | 7.8 | 0.00 | 0.01 | 0.00 | 79 | 1009.2 |
| 20260508140804 | 50 | 207 | 2.6 | 6.1 | 0.00 | 0.01 | 0.00 | 80 | 1009.2 |
| 20260508140304 | 50 | 203 | 4.3 | 8.7 | 0.00 | 0.01 | 0.00 | 80 | 1009.2 |
| 20260508135804 | 49 | 209 | 4.3 | 7.0 | 0.00 | 0.01 | 0.00 | 84 | 1009.2 |
| 20260508135306 | 48 | 190 | 2.6 | 6.1 | 0.00 | 0.01 | 0.00 | 84 | 1009.2 |
| 20260508134304 | 47 | 219 | 1.7 | 4.3 | 0.00 | 0.01 | 0.00 | 85 | 1009.2 |
| 20260508132306 | 46 | 184 | 0.0 | 0.9 | 0.00 | 0.01 | 0.00 | 86 | 1009.2 |
| 20260508131804 | 46 | 184 | 0.9 | 2.6 | 0.00 | 0.01 | 0.00 | 87 | 1009.2 |
| 20260508125804 | 46 | 183 | 1.7 | 2.6 | 0.00 | 0.01 | 0.00 | 88 | 1009.2 |
| 20260508124304 | 45 | 295 | 0.9 | 2.6 | 0.00 | 0.01 | 0.00 | 90 | 1009.2 |
| 20260508123804 | 45 | 0 | 1.7 | 2.6 | 0.00 | 0.01 | 0.00 | 90 | 1009.2 |
| 20260508121804 | 45 | 282 | 3.5 | 5.2 | 0.00 | 0.01 | 0.00 | 91 | 1009.2 |
| 20260508121304 | 44 | 340 | 2.6 | 4.3 | 0.00 | 0.01 | 0.00 | 93 | 1009.2 |
| 20260508120304 | 43 | 43 | 0.0 | 1.7 | 0.00 | 0.01 | 0.00 | 93 | 1009.2 |
| 20260508115306 | 43 | 43 | 0.0 | 0.9 | 0.00 | 0.01 | 0.00 | 93 | 1009.2 |
| 20260508114804 | 43 | 43 | 0.0 | 1.7 | 0.00 | 0.01 | 0.00 | 93 | 1009.2 |
| 20260508114304 | 42 | 43 | 0.0 | 1.7 | 0.00 | 0.01 | 0.00 | 93 | 1009.2 |
| 20260508112307 | 42 | 43 | 0.9 | 1.7 | 0.00 | 0.01 | 0.00 | 93 | 1009.2 |
| 20260508104803 | 43 | 43 | 0.0 | 0.9 | 0.00 | 0.01 | 0.00 | 92 | 1009.2 |
| 20260508103804 | 43 | 43 | 0.9 | 1.7 | 0.00 | 0.01 | 0.00 | 92 | 1009.2 |
| 20260508103303 | 43 | 44 | 0.0 | 0.0 | 0.00 | 0.01 | 0.00 | 91 | 1009.2 |
| 20260508102804 | 44 | 43 | 0.0 | 2.6 | 0.00 | 0.01 | 0.00 | 92 | 1009.2 |
| 20260508101304 | 44 | 0 | 0.0 | 2.6 | 0.00 | 0.01 | 0.00 | 92 | 1009.2 |
| 20260508095804 | 44 | 201 | 0.9 | 1.7 | 0.00 | 0.01 | 0.00 | 92 | 1009.2 |
| 20260508093304 | 44 | 201 | 0.0 | 2.6 | 0.00 | 0.01 | 0.00 | 92 | 1009.2 |
| 20260508092312 | 44 | 50 | 0.0 | 1.7 | 0.00 | 0.01 | 0.00 | 92 | 1009.2 |
| 20260508091804 | 44 | 50 | 0.9 | 1.7 | 0.00 | 0.01 | 0.00 | 91 | 1009.2 |
| 20260508090804 | 44 | 50 | 0.9 | 1.7 | 0.00 | 0.01 | 0.00 | 91 | 1009.2 |
| 20260508090304 | 44 | 50 | 0.0 | 0.0 | 0.00 | 0.01 | 0.00 | 91 | 1009.2 |
| 20260508085306 | 45 | 50 | 0.0 | 0.0 | 0.00 | 0.01 | 0.00 | 90 | 1009.2 |
| 20260508084304 | 45 | 50 | 0.0 | 0.9 | 0.00 | 0.01 | 0.00 | 90 | 1009.2 |
| 20260508083803 | 46 | 50 | 0.9 | 1.7 | 0.00 | 0.01 | 0.00 | 90 | 1009.2 |
| 20260508083304 | 46 | 50 | 0.0 | 2.6 | 0.00 | 0.01 | 0.00 | 90 | 1009.2 |
| 20260508082804 | 46 | 1 | 0.9 | 2.6 | 0.00 | 0.01 | 0.00 | 90 | 1009.2 |
| 20260508075803 | 46 | 315 | 2.6 | 4.3 | 0.00 | 0.01 | 0.00 | 90 | 1009.2 |
| 20260508074804 | 46 | 152 | 0.9 | 1.7 | 0.00 | 0.01 | 0.00 | 90 | 1009.2 |
| 20260508074304 | 46 | 152 | 0.9 | 1.7 | 0.00 | 0.01 | 0.00 | 90 | 1009.2 |
| 20260508072804 | 46 | 152 | 0.0 | 1.7 | 0.00 | 0.01 | 0.00 | 89 | 1009.2 |
| 20260508071304 | 47 | 152 | 0.0 | 1.7 | 0.00 | 0.01 | 0.00 | 86 | 1009.2 |
| 20260508070804 | 47 | 152 | 0.0 | 1.7 | 0.00 | 0.01 | 0.00 | 86 | 1009.2 |
| 20260508065306 | 48 | 152 | 2.6 | 2.6 | 0.00 | 0.01 | 0.00 | 85 | 1009.2 |
| 20260508064804 | 49 | 33 | 0.9 | 2.6 | 0.00 | 0.01 | 0.00 | 84 | 1009.2 |
| 20260508064304 | 49 | 33 | 0.0 | 1.7 | 0.00 | 0.01 | 0.00 | 83 | 1009.2 |
| 20260508063304 | 50 | 33 | 0.0 | 1.7 | 0.00 | 0.01 | 0.00 | 80 | 1009.2 |
| 20260508062803 | 51 | 31 | 1.7 | 4.3 | 0.00 | 0.01 | 0.00 | 79 | 1009.2 |
| 20260508062306 | 51 | 56 | 3.5 | 5.2 | 0.00 | 0.01 | 0.00 | 80 | 1009.2 |
| 20260508055306 | 54 | 306 | 5.2 | 11.3 | 0.00 | 0.00 | 0.00 | 64 | 1009.2 |
| 20260508053304 | 54 | 55 | 1.7 | 5.2 | 0.00 | 0.00 | 0.00 | 61 | 1009.2 |
| 20260508050804 | 55 | 53 | 1.7 | 5.2 | 0.00 | 0.00 | 0.00 | 59 | 1009.2 |
| 20260508044804 | 55 | 98 | 3.5 | 6.1 | 0.00 | 0.00 | 0.00 | 57 | 1009.2 |
| 20260508044304 | 56 | 84 | 3.5 | 7.8 | 0.00 | 0.00 | 0.00 | 58 | 1009.2 |
| 20260508043304 | 55 | 61 | 2.6 | 4.3 | 0.00 | 0.00 | 0.00 | 59 | 1009.2 |
| 20260508041304 | 56 | 1 | 3.5 | 5.2 | 0.00 | 0.00 | 0.00 | 57 | 1009.2 |
| 20260508034804 | 56 | 34 | 3.5 | 7.0 | 0.00 | 0.00 | 0.00 | 56 | 1009.2 |
| 20260508032306 | 59 | 50 | 5.2 | 12.2 | 0.00 | 0.00 | 0.00 | 46 | 1011.3 |
| 20260508030804 | 60 | 14 | 2.6 | 6.1 | 0.00 | 0.00 | 0.00 | 42 | 1011.3 |
| 20260508024804 | 61 | 134 | 0.9 | 1.7 | 0.00 | 0.00 | 0.00 | 40 | 1011.3 |
| 20260508023304 | 61 | 180 | 0.9 | 4.3 | 0.00 | 0.00 | 0.00 | 39 | 1011.3 |
| 20260508021804 | 61 | 144 | 0.9 | 1.7 | 0.00 | 0.00 | 0.00 | 38 | 1011.3 |
| 20260508021304 | 61 | 150 | 0.9 | 1.7 | 0.00 | 0.00 | 0.00 | 38 | 1011.3 |
| 20260508014304 | 62 | 257 | 3.5 | 6.1 | 0.00 | 0.00 | 0.00 | 40 | 1011.3 |
| 20260508013804 | 63 | 324 | 0.9 | 1.7 | 0.00 | 0.00 | 0.00 | 39 | 1011.3 |
| 20260508012804 | 63 | 35 | 3.5 | 10.4 | 0.00 | 0.00 | 0.00 | 38 | 1011.3 |
| 20260508012307 | 64 | 26 | 2.6 | 7.8 | 0.00 | 0.00 | 0.00 | 37 | 1011.3 |
| 20260508011804 | 64 | 5 | 4.3 | 11.3 | 0.00 | 0.00 | 0.00 | 35 | 1011.3 |
| 20260508010804 | 66 | 30 | 6.1 | 10.4 | 0.00 | 0.00 | 0.00 | 29 | 1011.3 |
| 20260508010304 | 66 | 33 | 6.1 | 11.3 | 0.00 | 0.00 | 0.00 | 28 | 1011.3 |
| 20260508005804 | 66 | 2 | 4.3 | 10.4 | 0.00 | 0.00 | 0.00 | 27 | 1011.3 |
| 20260508005306 | 67 | 14 | 4.3 | 11.3 | 0.00 | 0.00 | 0.00 | 28 | 1011.3 |
| 20260508002804 | 68 | 179 | 0.0 | 1.7 | 0.00 | 0.00 | 0.00 | 24 | 1011.3 |
| 20260507234304 | 70 | 51 | 3.5 | 5.2 | 0.00 | 0.00 | 0.00 | 24 | 1011.3 |
| 20260507232803 | 71 | 295 | 6.1 | 11.3 | 0.00 | 0.00 | 0.00 | 23 | 1011.3 |
| 20260507231304 | 72 | 287 | 3.5 | 7.0 | 0.00 | 0.00 | 0.00 | 22 | 1011.3 |
| 20260507230804 | 71 | 325 | 4.3 | 7.8 | 0.00 | 0.00 | 0.00 | 25 | 1011.3 |
| 20260507225306 | 71 | 263 | 7.8 | 13.0 | 0.00 | 0.00 | 0.00 | 22 | 1011.3 |
| 20260507224804 | 71 | 307 | 7.8 | 12.2 | 0.00 | 0.00 | 0.00 | 23 | 1011.3 |
| 20260507223804 | 72 | 308 | 6.1 | 12.2 | 0.00 | 0.00 | 0.00 | 25 | 1011.3 |
| 20260507223304 | 72 | 277 | 6.1 | 13.0 | 0.00 | 0.00 | 0.00 | 25 | 1011.3 |
| 20260507222306 | 71 | 265 | 6.1 | 11.3 | 0.00 | 0.00 | 0.00 | 24 | 1011.3 |
| 20260507221303 | 71 | 277 | 6.1 | 13.0 | 0.00 | 0.00 | 0.00 | 26 | 1011.3 |
| 20260507220803 | 70 | 247 | 9.6 | 17.4 | 0.00 | 0.00 | 0.00 | 24 | 1011.3 |
| 20260507215803 | 71 | 271 | 10.4 | 18.2 | 0.00 | 0.00 | 0.00 | 23 | 1011.3 |
| 20260507214803 | 71 | 262 | 7.8 | 15.6 | 0.00 | 0.00 | 0.00 | 24 | 1011.3 |
| 20260507214304 | 72 | 278 | 10.4 | 18.2 | 0.00 | 0.00 | 0.00 | 24 | 1011.3 |
| 20260507213804 | 72 | 285 | 7.8 | 15.6 | 0.00 | 0.00 | 0.00 | 23 | 1011.3 |
| 20260507212804 | 73 | 276 | 6.1 | 14.8 | 0.00 | 0.00 | 0.00 | 24 | 1011.3 |
| 20260507212307 | 72 | 297 | 8.7 | 15.6 | 0.00 | 0.00 | 0.00 | 25 | 1011.3 |
| 20260507205804 | 71 | 287 | 7.8 | 17.4 | 0.00 | 0.00 | 0.00 | 24 | 1011.3 |
| 20260507205306 | 69 | 242 | 9.6 | 17.4 | 0.00 | 0.00 | 0.00 | 25 | 1011.3 |
| 20260507204804 | 69 | 242 | 7.0 | 17.4 | 0.00 | 0.00 | 0.00 | 25 | 1011.3 |
| 20260507204304 | 71 | 248 | 7.8 | 13.0 | 0.00 | 0.00 | 0.00 | 26 | 1011.3 |
| 20260507202306 | 70 | 301 | 2.6 | 11.3 | 0.00 | 0.00 | 0.00 | 26 | 1011.3 |
| 20260507201304 | 70 | 230 | 6.1 | 10.4 | 0.00 | 0.00 | 0.00 | 27 | 1011.3 |
| 20260507200303 | 69 | 188 | 1.7 | 15.6 | 0.00 | 0.00 | 0.00 | 27 | 1011.3 |
| 20260507195803 | 69 | 294 | 7.8 | 11.3 | 0.00 | 0.00 | 0.00 | 26 | 1011.3 |
| 20260507194803 | 70 | 214 | 7.0 | 13.0 | 0.00 | 0.00 | 0.00 | 26 | 1011.3 |
| 20260507194303 | 69 | 257 | 7.8 | 13.0 | 0.00 | 0.00 | 0.00 | 26 | 1011.3 |
| 20260507193304 | 68 | 276 | 10.4 | 18.2 | 0.00 | 0.00 | 0.00 | 27 | 1011.3 |
| 20260507192803 | 68 | 252 | 9.6 | 17.4 | 0.00 | 0.00 | 0.00 | 27 | 1011.3 |
| 20260507191804 | 68 | 277 | 6.1 | 13.9 | 0.00 | 0.00 | 0.00 | 28 | 1011.3 |
| 20260507190803 | 68 | 271 | 5.2 | 17.4 | 0.00 | 0.00 | 0.00 | 29 | 1011.3 |
| 20260507185804 | 67 | 300 | 6.1 | 12.2 | 0.00 | 0.00 | 0.00 | 31 | 1011.3 |
| 20260507184804 | 66 | 247 | 6.1 | 11.3 | 0.00 | 0.00 | 0.00 | 32 | 1011.3 |
| 20260507183804 | 64 | 249 | 5.2 | 15.6 | 0.00 | 0.00 | 0.00 | 33 | 1011.3 |
| 20260507182804 | 64 | 302 | 5.2 | 13.9 | 0.00 | 0.00 | 0.00 | 34 | 1011.3 |
| 20260507182306 | 63 | 297 | 7.0 | 12.2 | 0.00 | 0.00 | 0.00 | 33 | 1011.3 |
| 20260507181804 | 63 | 256 | 6.1 | 13.9 | 0.00 | 0.00 | 0.00 | 34 | 1011.3 |
| 20260507180804 | 63 | 255 | 7.8 | 13.0 | 0.00 | 0.00 | 0.00 | 32 | 1011.3 |
| 20260507180304 | 63 | 264 | 8.7 | 14.8 | 0.00 | 0.00 | 0.00 | 33 | 1011.3 |
| 20260507175306 | 63 | 246 | 7.8 | 13.9 | 0.00 | 0.00 | 0.00 | 32 | 1011.3 |
| 20260507174304 | 63 | 247 | 6.1 | 13.0 | 0.00 | 0.01 | 0.00 | 34 | 1011.3 |
| 20260507173804 | 62 | 214 | 4.3 | 10.4 | 0.00 | 0.01 | 0.00 | 36 | 1011.3 |
| 20260507172307 | 62 | 164 | 2.6 | 6.1 | 0.00 | 0.01 | 0.00 | 36 | 1011.3 |
| 20260507171804 | 63 | 194 | 2.6 | 7.0 | 0.00 | 0.01 | 0.00 | 36 | 1011.3 |
| 20260507171303 | 62 | 239 | 2.6 | 6.1 | 0.00 | 0.01 | 0.00 | 35 | 1011.3 |
| 20260507165803 | 62 | 199 | 3.5 | 6.1 | 0.00 | 0.02 | 0.00 | 36 | 1011.3 |
| 20260507164804 | 62 | 224 | 3.5 | 10.4 | 0.00 | 0.02 | 0.00 | 36 | 1011.3 |